Voltar ao catálogo

ARIANE 1 DEB

AtivoSSO
NORAD 17423·DEBRIS·🇫🇷 France

Lançado Feb 22, 1986 de Guiana Space Centre

Loading…

Próximas Passagens (próximas 24 horas)

TLE

AtualizadoSource: Space-Track

Época: Sep 13, 2026, 00:08 UTC

1 17423U 86019FJ  26256.00606497 -.00000054  00000-0 -74537-5 0  9996
2 17423  98.7040 266.6317 0174725 144.0417 247.2304 14.02925452 27358

Acompanhe ARIANE 1 DEB em tempo real com AllMySat

Download on the App Store